Time,TemperatureF,DewpointF,PressureIn,WindDirection,WindDirectionDegrees,WindSpeedMPH,WindSpeedGustMPH,Humidity,HourlyPrecipIn,Conditions,Clouds,dailyrainin,SolarRadiationWatts/m^2,SoftwareType,DateUTC
2013-02-22 00:01:00,28.0,24.0,-100.00,SW,231,2.0,4.0,86,0.00,,,0.00,1.000000,,2013-02-22 07:01:00,
2013-02-22 00:32:00,28.0,24.0,-100.00,SW,231,2.0,4.0,86,0.00,,,0.00,1.000000,,2013-02-22 07:32:00,
2013-02-22 00:42:00,28.0,24.0,-100.00,SW,231,2.0,4.0,86,0.00,,,0.00,1.000000,,2013-02-22 07:42:00,
2013-02-22 00:52:00,28.0,24.0,-100.00,SW,231,2.0,4.0,86,0.00,,,0.00,1.000000,,2013-02-22 07:52:00,
2013-02-22 01:01:00,28.0,24.0,-100.00,NW,308,1.0,4.0,86,0.00,,,0.00,1.000000,,2013-02-22 08:01:00,
2013-02-22 01:32:00,28.0,24.0,-100.00,NW,308,1.0,4.0,86,0.00,,,0.00,1.000000,,2013-02-22 08:32:00,
2013-02-22 01:42:00,28.0,24.0,-100.00,NW,308,1.0,4.0,86,0.00,,,0.00,1.000000,,2013-02-22 08:42:00,
2013-02-22 01:52:00,28.0,24.0,-100.00,NW,308,1.0,4.0,86,0.00,,,0.00,1.000000,,2013-02-22 08:52:00,
2013-02-22 02:01:00,28.0,25.0,-100.00,NW,317,2.0,3.0,88,0.00,,,0.00,1.000000,,2013-02-22 09:01:00,
2013-02-22 02:22:00,28.0,25.0,-100.00,NW,317,2.0,3.0,88,0.00,,,0.00,1.000000,,2013-02-22 09:22:00,
2013-02-22 02:32:00,28.0,25.0,-100.00,NW,317,2.0,3.0,88,0.00,,,0.00,1.000000,,2013-02-22 09:32:00,
2013-02-22 02:42:00,28.0,25.0,-100.00,NW,317,2.0,3.0,88,0.00,,,0.00,1.000000,,2013-02-22 09:42:00,
2013-02-22 02:52:00,28.0,25.0,-100.00,NW,317,2.0,3.0,88,0.00,,,0.00,1.000000,,2013-02-22 09:52:00,
2013-02-22 03:01:00,27.0,24.0,-100.00,WNW,290,1.0,3.0,89,0.00,,,0.00,1.000000,,2013-02-22 10:01:00,
2013-02-22 03:32:00,27.0,24.0,-100.00,WNW,290,1.0,3.0,89,0.00,,,0.00,1.000000,,2013-02-22 10:32:00,
2013-02-22 03:42:00,27.0,24.0,-100.00,WNW,290,1.0,3.0,89,0.00,,,0.00,1.000000,,2013-02-22 10:42:00,
2013-02-22 03:52:00,27.0,24.0,-100.00,WNW,290,1.0,3.0,89,0.00,,,0.00,1.000000,,2013-02-22 10:52:00,
2013-02-22 04:01:00,28.0,25.0,-100.00,SW,220,2.0,4.0,87,0.00,,,0.00,1.000000,,2013-02-22 11:01:00,
2013-02-22 04:22:00,28.0,25.0,-100.00,SW,220,2.0,4.0,87,0.00,,,0.00,1.000000,,2013-02-22 11:22:00,
2013-02-22 04:32:00,28.0,25.0,-100.00,SW,220,2.0,4.0,87,0.00,,,0.00,1.000000,,2013-02-22 11:32:00,
2013-02-22 04:42:00,28.0,25.0,-100.00,SW,220,2.0,4.0,87,0.00,,,0.00,1.000000,,2013-02-22 11:42:00,
2013-02-22 04:52:00,28.0,25.0,-100.00,SW,220,2.0,4.0,87,0.00,,,0.00,1.000000,,2013-02-22 11:52:00,
2013-02-22 05:01:00,28.0,24.0,-100.00,SW,219,3.0,5.0,86,0.00,,,-99.99,1.000000,,2013-02-22 12:01:00,
2013-02-22 05:32:00,28.0,24.0,-100.00,SW,219,3.0,5.0,86,0.00,,,-99.99,1.000000,,2013-02-22 12:32:00,
2013-02-22 05:42:00,28.0,24.0,-100.00,SW,219,3.0,5.0,86,0.00,,,-99.99,1.000000,,2013-02-22 12:42:00,
2013-02-22 05:52:00,28.0,24.0,-100.00,SW,219,3.0,5.0,86,0.00,,,-99.99,1.000000,,2013-02-22 12:52:00,
2013-02-22 06:01:00,27.0,23.0,-100.00,WNW,286,1.0,5.0,86,0.00,,,0.00,1.000000,,2013-02-22 13:01:00,
2013-02-22 06:32:00,27.0,23.0,-100.00,WNW,286,1.0,5.0,86,0.00,,,0.00,1.000000,,2013-02-22 13:32:00,
2013-02-22 06:42:00,27.0,23.0,-100.00,WNW,286,1.0,5.0,86,0.00,,,0.00,1.000000,,2013-02-22 13:42:00,
2013-02-22 06:52:00,27.0,23.0,-100.00,WNW,286,1.0,5.0,86,0.00,,,0.00,1.000000,,2013-02-22 13:52:00,
2013-02-22 07:01:00,26.0,22.0,-100.00,SW,217,2.0,2.0,84,0.00,,,-99.99,1.000000,,2013-02-22 14:01:00,
2013-02-22 07:32:00,26.0,22.0,-100.00,SW,217,2.0,2.0,84,0.00,,,-99.99,1.000000,,2013-02-22 14:32:00,
2013-02-22 07:42:00,26.0,22.0,-100.00,SW,217,2.0,2.0,84,0.00,,,-99.99,1.000000,,2013-02-22 14:42:00,
2013-02-22 07:52:00,26.0,22.0,-100.00,SW,217,2.0,2.0,84,0.00,,,-99.99,1.000000,,2013-02-22 14:52:00,
2013-02-22 08:01:00,26.0,22.0,-100.00,SW,215,2.0,4.0,85,0.00,,,0.00,8.000000,,2013-02-22 15:01:00,
2013-02-22 08:32:00,26.0,22.0,-100.00,SW,215,2.0,4.0,85,0.00,,,0.00,8.000000,,2013-02-22 15:32:00,
2013-02-22 08:42:00,26.0,22.0,-100.00,SW,215,2.0,4.0,85,0.00,,,0.00,8.000000,,2013-02-22 15:42:00,
2013-02-22 08:52:00,26.0,22.0,-100.00,SW,215,2.0,4.0,85,0.00,,,0.00,8.000000,,2013-02-22 15:52:00,
2013-02-22 09:01:00,31.0,23.0,-100.00,SSW,205,3.0,8.0,73,0.00,,,0.00,50.000000,,2013-02-22 16:01:00,
2013-02-22 09:32:00,31.0,23.0,-100.00,SSW,205,3.0,8.0,73,0.00,,,0.00,50.000000,,2013-02-22 16:32:00,
2013-02-22 09:42:00,31.0,23.0,-100.00,SSW,205,3.0,8.0,73,0.00,,,0.00,50.000000,,2013-02-22 16:42:00,
2013-02-22 09:52:00,31.0,23.0,-100.00,SSW,205,3.0,8.0,73,0.00,,,0.00,50.000000,,2013-02-22 16:52:00,
2013-02-22 10:01:00,35.0,23.0,-100.00,South,185,4.0,9.0,61,0.00,,,0.00,179.000000,,2013-02-22 17:01:00,
2013-02-22 10:32:00,35.0,23.0,-100.00,South,185,4.0,9.0,61,0.00,,,0.00,179.000000,,2013-02-22 17:32:00,
2013-02-22 10:42:00,35.0,23.0,-100.00,South,185,4.0,9.0,61,0.00,,,0.00,179.000000,,2013-02-22 17:42:00,
2013-02-22 10:52:00,35.0,23.0,-100.00,South,185,4.0,9.0,61,0.00,,,0.00,179.000000,,2013-02-22 17:52:00,
2013-02-22 11:01:00,39.0,26.0,-100.00,South,175,3.0,9.0,59,0.00,,,0.00,252.000000,,2013-02-22 18:01:00,
2013-02-22 11:23:00,39.0,26.0,-100.00,South,175,3.0,9.0,59,0.00,,,0.00,252.000000,,2013-02-22 18:23:00,
2013-02-22 11:32:00,39.0,26.0,-100.00,South,175,3.0,9.0,59,0.00,,,0.00,252.000000,,2013-02-22 18:32:00,
2013-02-22 11:42:00,39.0,26.0,-100.00,South,175,3.0,9.0,59,0.00,,,0.00,252.000000,,2013-02-22 18:42:00,
2013-02-22 11:52:00,39.0,26.0,-100.00,South,175,3.0,9.0,59,0.00,,,0.00,252.000000,,2013-02-22 18:52:00,
2013-02-22 12:01:00,41.0,23.0,-100.00,South,176,4.0,14.0,49,0.00,,,0.00,360.000000,,2013-02-22 19:01:00,
2013-02-22 12:21:00,41.0,23.0,-100.00,South,176,4.0,14.0,49,0.00,,,0.00,360.000000,,2013-02-22 19:21:00,
2013-02-22 12:31:00,41.0,23.0,-100.00,South,176,4.0,14.0,49,0.00,,,0.00,360.000000,,2013-02-22 19:31:00,
2013-02-22 12:42:00,41.0,23.0,-100.00,South,176,4.0,14.0,49,0.00,,,0.00,360.000000,,2013-02-22 19:42:00,
2013-02-22 12:52:00,41.0,23.0,-100.00,South,176,4.0,14.0,49,0.00,,,0.00,360.000000,,2013-02-22 19:52:00,
2013-02-22 13:01:00,42.0,22.0,-100.00,ESE,116,5.0,19.0,44,0.00,,,-99.99,296.000000,,2013-02-22 20:01:00,
2013-02-22 13:32:00,42.0,22.0,-100.00,ESE,116,5.0,19.0,44,0.00,,,-99.99,296.000000,,2013-02-22 20:32:00,
2013-02-22 13:42:00,42.0,22.0,-100.00,ESE,116,5.0,19.0,44,0.00,,,-99.99,296.000000,,2013-02-22 20:42:00,
2013-02-22 13:52:00,42.0,22.0,-100.00,ESE,116,5.0,19.0,44,0.00,,,-99.99,296.000000,,2013-02-22 20:52:00,
2013-02-22 14:01:00,41.0,20.0,-100.00,SW,234,4.0,14.0,43,0.00,,,0.00,259.000000,,2013-02-22 21:01:00,
2013-02-22 14:32:00,41.0,20.0,-100.00,SW,234,4.0,14.0,43,0.00,,,0.00,259.000000,,2013-02-22 21:32:00,
2013-02-22 14:42:00,41.0,20.0,-100.00,SW,234,4.0,14.0,43,0.00,,,0.00,259.000000,,2013-02-22 21:42:00,
2013-02-22 14:52:00,41.0,20.0,-100.00,SW,234,4.0,14.0,43,0.00,,,0.00,259.000000,,2013-02-22 21:52:00,
2013-02-22 15:01:00,42.0,22.0,-100.00,South,187,5.0,12.0,44,0.00,,,0.00,199.000000,,2013-02-22 22:01:00,
2013-02-22 15:32:00,42.0,22.0,-100.00,South,187,5.0,12.0,44,0.00,,,0.00,199.000000,,2013-02-22 22:32:00,
2013-02-22 15:42:00,42.0,22.0,-100.00,South,187,5.0,12.0,44,0.00,,,0.00,199.000000,,2013-02-22 22:42:00,
2013-02-22 15:52:00,42.0,22.0,-100.00,South,187,5.0,12.0,44,0.00,,,0.00,199.000000,,2013-02-22 22:52:00,
2013-02-22 16:01:00,43.0,20.0,-100.00,South,174,3.0,11.0,40,0.00,,,0.00,240.000000,,2013-02-22 23:01:00,
2013-02-22 16:32:00,43.0,20.0,-100.00,South,174,3.0,11.0,40,0.00,,,0.00,240.000000,,2013-02-22 23:32:00,
2013-02-22 16:42:00,43.0,20.0,-100.00,South,174,3.0,11.0,40,0.00,,,0.00,240.000000,,2013-02-22 23:42:00,
2013-02-22 16:52:00,43.0,20.0,-100.00,South,174,3.0,11.0,40,0.00,,,0.00,240.000000,,2013-02-22 23:52:00,
2013-02-22 17:01:00,42.0,21.0,-100.00,South,189,4.0,9.0,43,0.00,,,0.00,113.000000,,2013-02-23 00:01:00,
2013-02-22 17:21:00,42.0,21.0,-100.00,South,189,4.0,9.0,43,0.00,,,0.00,113.000000,,2013-02-23 00:21:00,
2013-02-22 17:32:00,42.0,21.0,-100.00,South,189,4.0,9.0,43,0.00,,,0.00,113.000000,,2013-02-23 00:32:00,
2013-02-22 17:42:00,42.0,21.0,-100.00,South,189,4.0,9.0,43,0.00,,,0.00,113.000000,,2013-02-23 00:42:00,
2013-02-22 17:52:00,42.0,21.0,-100.00,South,189,4.0,9.0,43,0.00,,,0.00,113.000000,,2013-02-23 00:52:00,
2013-02-22 18:01:00,39.0,21.0,-100.00,WNW,295,2.0,8.0,48,0.00,,,0.00,24.000000,,2013-02-23 01:01:00,
2013-02-22 18:32:00,39.0,21.0,-100.00,WNW,295,2.0,8.0,48,0.00,,,0.00,24.000000,,2013-02-23 01:32:00,
2013-02-22 18:42:00,39.0,21.0,-100.00,WNW,295,2.0,8.0,48,0.00,,,0.00,24.000000,,2013-02-23 01:42:00,
2013-02-22 18:52:00,39.0,21.0,-100.00,WNW,295,2.0,8.0,48,0.00,,,0.00,24.000000,,2013-02-23 01:52:00,
2013-02-22 19:01:00,37.0,24.0,-100.00,WSW,250,1.0,6.0,58,0.00,,,0.00,2.000000,,2013-02-23 02:01:00,
2013-02-22 19:32:00,37.0,24.0,-100.00,WSW,250,1.0,6.0,58,0.00,,,0.00,2.000000,,2013-02-23 02:32:00,
2013-02-22 19:42:00,37.0,24.0,-100.00,WSW,250,1.0,6.0,58,0.00,,,0.00,2.000000,,2013-02-23 02:42:00,
2013-02-22 19:52:00,37.0,24.0,-100.00,WSW,250,1.0,6.0,58,0.00,,,0.00,2.000000,,2013-02-23 02:52:00,
2013-02-22 20:01:00,36.0,25.0,-100.00,WSW,254,2.0,4.0,65,0.00,,,0.00,1.000000,,2013-02-23 03:01:00,
2013-02-22 20:32:00,36.0,25.0,-100.00,WSW,254,2.0,4.0,65,0.00,,,0.00,1.000000,,2013-02-23 03:32:00,
2013-02-22 20:42:00,36.0,25.0,-100.00,WSW,254,2.0,4.0,65,0.00,,,0.00,1.000000,,2013-02-23 03:42:00,
2013-02-22 20:52:00,36.0,25.0,-100.00,WSW,254,2.0,4.0,65,0.00,,,0.00,1.000000,,2013-02-23 03:52:00,
2013-02-22 21:01:00,37.0,25.0,-100.00,NNE,27,2.0,6.0,61,0.00,,,0.00,1.000000,,2013-02-23 04:01:00,
2013-02-22 21:32:00,37.0,25.0,-100.00,NNE,27,2.0,6.0,61,0.00,,,0.00,1.000000,,2013-02-23 04:32:00,
2013-02-22 21:42:00,37.0,25.0,-100.00,NNE,27,2.0,6.0,61,0.00,,,0.00,1.000000,,2013-02-23 04:42:00,
2013-02-22 21:52:00,37.0,25.0,-100.00,NNE,27,2.0,6.0,61,0.00,,,0.00,1.000000,,2013-02-23 04:52:00,
2013-02-22 22:01:00,37.0,27.0,-100.00,SSW,192,3.0,9.0,67,0.00,,,0.00,1.000000,,2013-02-23 05:01:00,
2013-02-22 22:23:00,37.0,27.0,-100.00,SSW,192,3.0,9.0,67,0.00,,,0.00,1.000000,,2013-02-23 05:23:00,
2013-02-22 22:33:00,37.0,27.0,-100.00,SSW,192,3.0,9.0,67,0.00,,,0.00,1.000000,,2013-02-23 05:33:00,
2013-02-22 22:42:00,37.0,27.0,-100.00,SSW,192,3.0,9.0,67,0.00,,,0.00,1.000000,,2013-02-23 05:42:00,
2013-02-22 22:52:00,37.0,27.0,-100.00,SSW,192,3.0,9.0,67,0.00,,,0.00,1.000000,,2013-02-23 05:52:00,
2013-02-22 23:01:00,37.0,28.0,-100.00,SSE,161,3.0,8.0,69,0.00,,,0.00,1.000000,,2013-02-23 06:01:00,
2013-02-22 23:32:00,37.0,28.0,-100.00,SSE,161,3.0,8.0,69,0.00,,,0.00,1.000000,,2013-02-23 06:32:00,
2013-02-22 23:42:00,37.0,28.0,-100.00,SSE,161,3.0,8.0,69,0.00,,,0.00,1.000000,,2013-02-23 06:42:00,
2013-02-22 23:52:00,37.0,28.0,-100.00,SSE,161,3.0,8.0,69,0.00,,,0.00,1.000000,,2013-02-23 06:52:00,